| time (UTC) | temp C | wind direction | speed KPH | gust KPH | rain 1hr cm | rain 24hr cm | rain mn cm | humidity % | barometer mb |
| 20260508164019 | 21 | 56 | 3.2 | 3.2 | 0.00 | 0.00 | 0.00 | 45 | 1014.8 |
| 20260508163517 | 21 | 241 | 6.4 | 9.7 | 0.00 | 0.00 | 0.00 | 41 | 1015.0 |
| 20260508163013 | 21 | 124 | 3.2 | 3.2 | 0.00 | 0.00 | 0.00 | 45 | 1015.1 |
| 20260508162510 | 21 | 71 | 4.8 | 6.4 | 0.00 | 0.00 | 0.00 | 45 | 1015.5 |
| 20260508162007 | 21 | 131 | 3.2 | 3.2 | 0.00 | 0.00 | 0.00 | 45 | 1015.3 |
| 20260508161504 | 21 | 208 | 1.6 | 3.2 | 0.00 | 0.00 | 0.00 | 45 | 1015.5 |
| 20260508161001 | 21 | 321 | 4.8 | 6.4 | 0.00 | 0.00 | 0.00 | 45 | 1015.4 |
| 20260508160500 | 21 | 130 | 4.8 | 6.4 | 0.00 | 0.00 | 0.00 | 44 | 1015.7 |
| 20260508155955 | 21 | 82 | 3.2 | 3.2 | 0.00 | 0.00 | 0.00 | 47 | 1015.7 |
| 20260508155453 | 21 | 286 | 3.2 | 3.2 | 0.00 | 0.00 | 0.00 | 51 | 1015.7 |
| 20260508154949 | 21 | 96 | 3.2 | 3.2 | 0.00 | 0.00 | 0.00 | 48 | 1015.7 |
| 20260508154448 | 21 | 336 | 3.2 | 4.8 | 0.00 | 0.00 | 0.00 | 48 | 1015.9 |
| 20260508153944 | 20 | 65 | 3.2 | 3.2 | 0.00 | 0.00 | 0.00 | 49 | 1015.7 |
| 20260508153441 | 20 | 62 | 1.6 | 1.6 | 0.00 | 0.00 | 0.00 | 49 | 1016.0 |
| 20260508152937 | 20 | 346 | 8.0 | 11.3 | 0.00 | 0.00 | 0.00 | 48 | 1016.1 |
| 20260508152434 | 20 | 67 | 1.6 | 3.2 | 0.00 | 0.00 | 0.00 | 50 | 1016.3 |
| 20260508151930 | 20 | 294 | 1.6 | 4.8 | 0.00 | 0.00 | 0.00 | 51 | 1016.4 |
| 20260508151427 | 19 | 359 | 4.8 | 4.8 | 0.00 | 0.00 | 0.00 | 52 | 1016.3 |
| 20260508150923 | 19 | 278 | 3.2 | 6.4 | 0.00 | 0.00 | 0.00 | 50 | 1016.4 |
| 20260508150420 | 19 | 343 | 1.6 | 3.2 | 0.00 | 0.00 | 0.00 | 54 | 1016.4 |
| 20260508145916 | 19 | 109 | 3.2 | 4.8 | 0.00 | 0.00 | 0.00 | 53 | 1016.4 |
| 20260508145413 | 19 | 114 | 3.2 | 3.2 | 0.00 | 0.00 | 0.00 | 52 | 1016.5 |
| 20260508144909 | 19 | 231 | 3.2 | 3.2 | 0.00 | 0.00 | 0.00 | 52 | 1016.4 |
| 20260508144407 | 18 | 342 | 3.2 | 3.2 | 0.00 | 0.00 | 0.00 | 55 | 1016.5 |
| 20260508143904 | 18 | 80 | 3.2 | 3.2 | 0.00 | 0.00 | 0.00 | 57 | 1016.6 |
| 20260508143402 | 18 | 38 | 1.6 | 1.6 | 0.00 | 0.00 | 0.00 | 56 | 1016.6 |
| 20260508142858 | 18 | 44 | 1.6 | 3.2 | 0.00 | 0.00 | 0.00 | 56 | 1016.7 |
| 20260508142355 | 18 | 330 | 3.2 | 4.8 | 0.00 | 0.00 | 0.00 | 53 | 1016.7 |
| 20260508141851 | 17 | 112 | 1.6 | 3.2 | 0.00 | 0.00 | 0.00 | 59 | 1016.7 |
| 20260508141348 | 17 | 92 | 3.2 | 4.8 | 0.00 | 0.00 | 0.00 | 59 | 1016.8 |
| 20260508140846 | 16 | 258 | 4.8 | 6.4 | 0.00 | 0.00 | 0.00 | 60 | 1016.8 |
| 20260508140343 | 16 | 73 | 0.0 | 1.6 | 0.00 | 0.00 | 0.00 | 63 | 1016.7 |
| 20260508135838 | 15 | 62 | 1.6 | 1.6 | 0.00 | 0.00 | 0.00 | 63 | 1016.8 |
| 20260508135335 | 15 | 51 | 0.0 | 0.0 | 0.00 | 0.00 | 0.00 | 66 | 1016.7 |
| 20260508134831 | 15 | 264 | 4.8 | 4.8 | 0.00 | 0.00 | 0.00 | 64 | 1016.7 |
| 20260508134328 | 15 | 233 | 6.4 | 9.7 | 0.00 | 0.00 | 0.00 | 66 | 1016.9 |
| 20260508133825 | 15 | 115 | 1.6 | 3.2 | 0.00 | 0.00 | 0.00 | 66 | 1016.9 |
| 20260508133323 | 14 | 70 | 3.2 | 3.2 | 0.00 | 0.00 | 0.00 | 68 | 1017.1 |
| 20260508132820 | 14 | 52 | 1.6 | 3.2 | 0.00 | 0.00 | 0.00 | 67 | 1017.0 |
| 20260508132317 | 13 | 57 | 0.0 | 0.0 | 0.00 | 0.00 | 0.00 | 70 | 1017.2 |
| 20260508131813 | 13 | 59 | 0.0 | 1.6 | 0.00 | 0.00 | 0.00 | 71 | 1017.2 |
| 20260508131309 | 13 | 35 | 1.6 | 1.6 | 0.00 | 0.00 | 0.00 | 71 | 1017.0 |
| 20260508130806 | 13 | 51 | 0.0 | 0.0 | 0.00 | 0.00 | 0.00 | 72 | 1016.9 |
| 20260508130303 | 12 | 272 | 3.2 | 4.8 | 0.00 | 0.00 | 0.00 | 72 | 1017.1 |
| 20260508125759 | 12 | 102 | 1.6 | 1.6 | 0.00 | 0.00 | 0.00 | 75 | 1016.7 |
| 20260508125255 | 12 | 304 | 3.2 | 3.2 | 0.00 | 0.00 | 0.00 | 78 | 1017.2 |
| 20260508124754 | 12 | 71 | 0.0 | 0.0 | 0.00 | 0.00 | 0.00 | 78 | 1017.0 |
| 20260508124251 | 11 | 81 | 1.6 | 1.6 | 0.00 | 0.00 | 0.00 | 78 | 1017.0 |
| 20260508123749 | 11 | 70 | 1.6 | 1.6 | 0.00 | 0.00 | 0.00 | 81 | 1016.9 |
| 20260508123246 | 10 | 63 | 0.0 | 0.0 | 0.00 | 0.00 | 0.00 | 83 | 1016.7 |
| 20260508122743 | 10 | 58 | 0.0 | 0.0 | 0.00 | 0.00 | 0.00 | 87 | 1016.8 |
| 20260508122239 | 10 | 54 | 0.0 | 1.6 | 0.00 | 0.00 | 0.00 | 91 | 1016.9 |
| 20260508121737 | 8 | 71 | 0.0 | 1.6 | 0.00 | 0.00 | 0.00 | 96 | 1016.8 |
| 20260508121235 | 8 | 59 | 0.0 | 0.0 | 0.00 | 0.00 | 0.00 | 97 | 1017.0 |
| 20260508120732 | 8 | 63 | 0.0 | 0.0 | 0.00 | 0.00 | 0.00 | 98 | 1016.8 |
| 20260508120231 | 7 | 63 | 0.0 | 0.0 | 0.00 | 0.00 | 0.00 | 99 | 1016.6 |
| 20260508115728 | 7 | 61 | 0.0 | 0.0 | 0.00 | 0.00 | 0.00 | 99 | 1016.6 |
| 20260508115225 | 7 | 61 | 0.0 | 0.0 | 0.00 | 0.00 | 0.00 | 99 | 1016.6 |
| 20260508114721 | 7 | 66 | 0.0 | 0.0 | 0.00 | 0.00 | 0.00 | 99 | 1016.5 |
| 20260508114218 | 7 | 62 | 0.0 | 0.0 | 0.00 | 0.00 | 0.00 | 99 | 1016.6 |
| 20260508113715 | 7 | 41 | 0.0 | 0.0 | 0.00 | 0.00 | 0.00 | 99 | 1016.4 |
| 20260508113214 | 7 | 41 | 0.0 | 0.0 | 0.00 | 0.00 | 0.00 | 99 | 1016.1 |
| 20260508112709 | 6 | 40 | 0.0 | 0.0 | 0.00 | 0.00 | 0.00 | 99 | 1016.1 |
| 20260508112206 | 6 | 40 | 0.0 | 0.0 | 0.00 | 0.00 | 0.00 | 99 | 1016.0 |
| 20260508111703 | 6 | 40 | 0.0 | 0.0 | 0.00 | 0.00 | 0.00 | 99 | 1015.9 |
| 20260508111200 | 6 | 40 | 0.0 | 0.0 | 0.00 | 0.00 | 0.00 | 99 | 1015.8 |
| 20260508110658 | 6 | 40 | 0.0 | 0.0 | 0.00 | 0.00 | 0.00 | 99 | 1015.8 |
| 20260508110154 | 6 | 40 | 0.0 | 0.0 | 0.00 | 0.00 | 0.00 | 99 | 1015.8 |
| 20260508105649 | 6 | 40 | 0.0 | 0.0 | 0.00 | 0.00 | 0.00 | 99 | 1015.8 |
| 20260508105146 | 6 | 40 | 0.0 | 0.0 | 0.00 | 0.00 | 0.00 | 98 | 1015.7 |
| 20260508104644 | 6 | 40 | 0.0 | 0.0 | 0.00 | 0.00 | 0.00 | 98 | 1015.6 |
| 20260508104140 | 6 | 40 | 0.0 | 0.0 | 0.00 | 0.00 | 0.00 | 98 | 1015.7 |
| 20260508103637 | 6 | 40 | 0.0 | 0.0 | 0.00 | 0.00 | 0.00 | 98 | 1015.6 |
| 20260508103135 | 6 | 40 | 0.0 | 0.0 | 0.00 | 0.00 | 0.00 | 98 | 1015.7 |
| 20260508102632 | 6 | 40 | 0.0 | 0.0 | 0.00 | 0.00 | 0.00 | 98 | 1015.8 |
| 20260508102130 | 6 | 40 | 0.0 | 0.0 | 0.00 | 0.00 | 0.00 | 98 | 1015.8 |
| 20260508101627 | 6 | 40 | 0.0 | 0.0 | 0.00 | 0.00 | 0.00 | 98 | 1015.7 |
| 20260508101124 | 6 | 40 | 0.0 | 0.0 | 0.00 | 0.00 | 0.00 | 98 | 1015.8 |
| 20260508100622 | 6 | 40 | 0.0 | 0.0 | 0.00 | 0.00 | 0.00 | 98 | 1015.9 |
| 20260508100120 | 6 | 40 | 0.0 | 0.0 | 0.00 | 0.00 | 0.00 | 98 | 1016.0 |
| 20260508095616 | 6 | 40 | 0.0 | 0.0 | 0.00 | 0.00 | 0.00 | 98 | 1015.9 |
| 20260508095113 | 6 | 40 | 0.0 | 0.0 | 0.00 | 0.00 | 0.00 | 98 | 1015.7 |
| 20260508094610 | 6 | 40 | 0.0 | 0.0 | 0.00 | 0.00 | 0.00 | 98 | 1015.8 |
| 20260508094106 | 6 | 39 | 0.0 | 0.0 | 0.00 | 0.00 | 0.00 | 98 | 1015.8 |
| 20260508093604 | 6 | 39 | 0.0 | 0.0 | 0.00 | 0.00 | 0.00 | 98 | 1015.8 |
| 20260508093102 | 6 | 39 | 0.0 | 0.0 | 0.00 | 0.00 | 0.00 | 98 | 1015.6 |
| 20260508092558 | 6 | 39 | 0.0 | 0.0 | 0.00 | 0.00 | 0.00 | 98 | 1015.8 |
| 20260508092057 | 6 | 39 | 0.0 | 0.0 | 0.00 | 0.00 | 0.00 | 98 | 1015.7 |
| 20260508091554 | 6 | 39 | 0.0 | 0.0 | 0.00 | 0.00 | 0.00 | 98 | 1015.7 |
| 20260508091050 | 6 | 39 | 0.0 | 0.0 | 0.00 | 0.00 | 0.00 | 98 | 1015.6 |
| 20260508090549 | 6 | 23 | 1.6 | 1.6 | 0.00 | 0.00 | 0.00 | 98 | 1015.5 |
| 20260508090045 | 6 | 40 | 0.0 | 0.0 | 0.00 | 0.00 | 0.00 | 98 | 1015.3 |
| 20260508085542 | 6 | 60 | 0.0 | 0.0 | 0.00 | 0.00 | 0.00 | 98 | 1015.3 |
| 20260508085039 | 6 | 60 | 0.0 | 0.0 | 0.00 | 0.00 | 0.00 | 98 | 1015.3 |
| 20260508084536 | 6 | 60 | 0.0 | 0.0 | 0.00 | 0.00 | 0.00 | 97 | 1015.2 |
| 20260508084033 | 6 | 60 | 0.0 | 0.0 | 0.00 | 0.00 | 0.00 | 97 | 1015.3 |
| 20260508083530 | 6 | 60 | 0.0 | 0.0 | 0.00 | 0.00 | 0.00 | 97 | 1015.2 |
| 20260508083027 | 6 | 60 | 0.0 | 0.0 | 0.00 | 0.00 | 0.00 | 97 | 1015.3 |
| 20260508082523 | 6 | 60 | 0.0 | 0.0 | 0.00 | 0.00 | 0.00 | 97 | 1015.5 |
| 20260508082020 | 6 | 60 | 0.0 | 0.0 | 0.00 | 0.00 | 0.00 | 97 | 1015.3 |
| 20260508081518 | 6 | 60 | 0.0 | 0.0 | 0.00 | 0.00 | 0.00 | 97 | 1015.6 |
| 20260508081013 | 6 | 60 | 0.0 | 0.0 | 0.00 | 0.00 | 0.00 | 97 | 1015.6 |
| 20260508080512 | 7 | 60 | 0.0 | 0.0 | 0.00 | 0.00 | 0.00 | 96 | 1015.7 |
| 20260508080009 | 7 | 60 | 0.0 | 0.0 | 0.00 | 0.00 | 0.00 | 96 | 1015.6 |
| 20260508075505 | 7 | 60 | 0.0 | 0.0 | 0.00 | 0.00 | 0.00 | 96 | 1015.8 |
| 20260508075003 | 7 | 60 | 0.0 | 0.0 | 0.00 | 0.00 | 0.00 | 96 | 1015.8 |
| 20260508074501 | 7 | 60 | 0.0 | 0.0 | 0.00 | 0.00 | 0.00 | 96 | 1016.0 |
| 20260508073957 | 7 | 60 | 0.0 | 0.0 | 0.00 | 0.00 | 0.00 | 96 | 1015.9 |
| 20260508073454 | 7 | 60 | 0.0 | 0.0 | 0.00 | 0.00 | 0.00 | 95 | 1016.1 |
| 20260508072951 | 7 | 60 | 0.0 | 0.0 | 0.00 | 0.00 | 0.00 | 94 | 1016.0 |
| 20260508072447 | 7 | 60 | 0.0 | 0.0 | 0.00 | 0.00 | 0.00 | 94 | 1016.1 |
| 20260508071945 | 7 | 60 | 0.0 | 0.0 | 0.00 | 0.00 | 0.00 | 94 | 1016.3 |
| 20260508071443 | 7 | 60 | 0.0 | 0.0 | 0.00 | 0.00 | 0.00 | 94 | 1016.3 |
| 20260508070940 | 7 | 60 | 0.0 | 0.0 | 0.00 | 0.00 | 0.00 | 94 | 1016.1 |
| 20260508070438 | 7 | 60 | 0.0 | 0.0 | 0.00 | 0.00 | 0.00 | 93 | 1016.1 |
| 20260508065936 | 7 | 60 | 0.0 | 0.0 | 0.00 | 0.00 | 0.00 | 92 | 1016.1 |
| 20260508065433 | 7 | 60 | 0.0 | 0.0 | 0.00 | 0.00 | 0.00 | 92 | 1016.3 |
| 20260508064931 | 8 | 60 | 0.0 | 0.0 | 0.00 | 0.00 | 0.00 | 92 | 1016.3 |
| 20260508064428 | 8 | 60 | 0.0 | 0.0 | 0.00 | 0.00 | 0.00 | 92 | 1016.6 |
| 20260508063926 | 8 | 60 | 0.0 | 0.0 | 0.00 | 0.00 | 0.00 | 91 | 1016.5 |
| 20260508063423 | 8 | 60 | 0.0 | 0.0 | 0.00 | 0.00 | 0.00 | 90 | 1016.6 |
| 20260508062920 | 8 | 60 | 0.0 | 0.0 | 0.00 | 0.00 | 0.00 | 90 | 1016.6 |
| 20260508062418 | 8 | 60 | 0.0 | 0.0 | 0.00 | 0.00 | 0.00 | 89 | 1016.4 |
| 20260508061915 | 8 | 60 | 0.0 | 0.0 | 0.00 | 0.00 | 0.00 | 90 | 1016.5 |
| 20260508061413 | 8 | 60 | 0.0 | 0.0 | 0.00 | 0.00 | 0.00 | 90 | 1016.6 |
| 20260508060908 | 8 | 60 | 0.0 | 0.0 | 0.00 | 0.00 | 0.00 | 91 | 1016.6 |
| 20260508060407 | 8 | 60 | 0.0 | 0.0 | 0.00 | 0.00 | 0.00 | 93 | 1016.5 |
| 20260508055907 | 8 | 60 | 0.0 | 0.0 | 0.00 | 0.00 | 0.00 | 93 | 1016.6 |
| 20260508055404 | 8 | 60 | 0.0 | 0.0 | 0.00 | 0.00 | 0.00 | 93 | 1016.6 |
| 20260508054900 | 8 | 60 | 0.0 | 0.0 | 0.00 | 0.00 | 0.00 | 93 | 1016.4 |
| 20260508054358 | 8 | 60 | 0.0 | 0.0 | 0.00 | 0.00 | 0.00 | 93 | 1016.6 |
| 20260508053855 | 8 | 60 | 0.0 | 0.0 | 0.00 | 0.00 | 0.00 | 93 | 1016.6 |
| 20260508053352 | 8 | 60 | 0.0 | 0.0 | 0.00 | 0.00 | 0.00 | 93 | 1016.5 |
| 20260508052849 | 8 | 60 | 0.0 | 0.0 | 0.00 | 0.00 | 0.00 | 93 | 1016.5 |
| 20260508052347 | 8 | 60 | 0.0 | 0.0 | 0.00 | 0.00 | 0.00 | 93 | 1016.7 |
| 20260508051843 | 8 | 60 | 0.0 | 0.0 | 0.00 | 0.00 | 0.00 | 93 | 1016.7 |
| 20260508051338 | 8 | 60 | 0.0 | 0.0 | 0.00 | 0.00 | 0.00 | 92 | 1016.6 |
| 20260508050835 | 8 | 60 | 0.0 | 0.0 | 0.00 | 0.00 | 0.00 | 92 | 1016.7 |
| 20260508050332 | 8 | 60 | 0.0 | 0.0 | 0.00 | 0.00 | 0.00 | 91 | 1016.7 |
| 20260508045827 | 8 | 60 | 0.0 | 0.0 | 0.00 | 0.00 | 0.00 | 90 | 1016.4 |
| 20260508045326 | 8 | 60 | 0.0 | 0.0 | 0.00 | 0.00 | 0.00 | 90 | 1016.4 |
| 20260508044823 | 8 | 60 | 0.0 | 0.0 | 0.00 | 0.00 | 0.00 | 90 | 1016.5 |
| 20260508044319 | 8 | 60 | 0.0 | 0.0 | 0.00 | 0.00 | 0.00 | 91 | 1016.6 |
| 20260508043816 | 8 | 60 | 0.0 | 0.0 | 0.00 | 0.00 | 0.00 | 90 | 1016.6 |
| 20260508043313 | 8 | 60 | 0.0 | 0.0 | 0.00 | 0.00 | 0.00 | 89 | 1016.5 |
| 20260508042809 | 8 | 60 | 0.0 | 0.0 | 0.00 | 0.00 | 0.00 | 89 | 1016.3 |
| 20260508042308 | 8 | 60 | 0.0 | 0.0 | 0.00 | 0.00 | 0.00 | 90 | 1016.5 |
| 20260508041804 | 9 | 60 | 0.0 | 0.0 | 0.00 | 0.00 | 0.00 | 89 | 1016.4 |
| 20260508041300 | 8 | 60 | 0.0 | 0.0 | 0.00 | 0.00 | 0.00 | 89 | 1016.5 |
| 20260508040756 | 8 | 60 | 0.0 | 0.0 | 0.00 | 0.00 | 0.00 | 87 | 1016.5 |
| 20260508040254 | 8 | 60 | 0.0 | 0.0 | 0.00 | 0.00 | 0.00 | 88 | 1016.5 |
| 20260508035751 | 9 | 60 | 0.0 | 0.0 | 0.00 | 0.00 | 0.00 | 88 | 1016.3 |
| 20260508035249 | 9 | 60 | 0.0 | 0.0 | 0.00 | 0.00 | 0.00 | 88 | 1016.5 |
| 20260508034745 | 8 | 60 | 0.0 | 0.0 | 0.00 | 0.00 | 0.00 | 87 | 1016.5 |
| 20260508034242 | 9 | 60 | 0.0 | 0.0 | 0.00 | 0.00 | 0.00 | 87 | 1016.6 |
| 20260508033739 | 9 | 60 | 0.0 | 0.0 | 0.00 | 0.00 | 0.00 | 86 | 1016.7 |
| 20260508033238 | 9 | 60 | 0.0 | 0.0 | 0.00 | 0.00 | 0.00 | 84 | 1016.6 |
| 20260508032735 | 9 | 60 | 0.0 | 0.0 | 0.00 | 0.00 | 0.00 | 83 | 1016.8 |
| 20260508032232 | 9 | 60 | 0.0 | 0.0 | 0.00 | 0.00 | 0.00 | 82 | 1016.9 |
| 20260508031729 | 10 | 60 | 0.0 | 0.0 | 0.00 | 0.00 | 0.00 | 85 | 1016.7 |
| 20260508031225 | 10 | 60 | 0.0 | 0.0 | 0.00 | 0.00 | 0.00 | 85 | 1016.8 |
| 20260508030721 | 10 | 60 | 0.0 | 0.0 | 0.00 | 0.00 | 0.00 | 85 | 1016.7 |
| 20260508030219 | 10 | 60 | 0.0 | 0.0 | 0.00 | 0.00 | 0.00 | 84 | 1016.6 |
| 20260508025715 | 10 | 60 | 0.0 | 0.0 | 0.00 | 0.00 | 0.00 | 84 | 1016.5 |
| 20260508025213 | 10 | 60 | 0.0 | 0.0 | 0.00 | 0.00 | 0.00 | 83 | 1016.5 |
| 20260508024708 | 10 | 60 | 0.0 | 0.0 | 0.00 | 0.00 | 0.00 | 82 | 1016.6 |
| 20260508024206 | 10 | 60 | 0.0 | 0.0 | 0.00 | 0.00 | 0.00 | 80 | 1016.4 |
| 20260508023701 | 10 | 60 | 0.0 | 0.0 | 0.00 | 0.00 | 0.00 | 78 | 1016.5 |
| 20260508023200 | 10 | 60 | 0.0 | 0.0 | 0.00 | 0.00 | 0.00 | 77 | 1016.3 |
| 20260508022655 | 10 | 60 | 0.0 | 0.0 | 0.00 | 0.00 | 0.00 | 76 | 1016.4 |
| 20260508022152 | 10 | 60 | 0.0 | 0.0 | 0.00 | 0.00 | 0.00 | 76 | 1016.4 |
| 20260508021648 | 10 | 60 | 0.0 | 0.0 | 0.00 | 0.00 | 0.00 | 72 | 1016.0 |
| 20260508021144 | 10 | 60 | 0.0 | 0.0 | 0.00 | 0.00 | 0.00 | 73 | 1016.1 |
| 20260508020642 | 10 | 60 | 0.0 | 0.0 | 0.00 | 0.00 | 0.00 | 70 | 1016.0 |
| 20260508020139 | 11 | 60 | 0.0 | 0.0 | 0.00 | 0.00 | 0.00 | 68 | 1015.8 |
| 20260508015637 | 11 | 60 | 0.0 | 0.0 | 0.00 | 0.00 | 0.00 | 69 | 1015.8 |
| 20260508015133 | 11 | 60 | 0.0 | 0.0 | 0.00 | 0.00 | 0.00 | 68 | 1016.0 |
| 20260508014630 | 11 | 60 | 0.0 | 0.0 | 0.00 | 0.00 | 0.00 | 69 | 1015.7 |
| 20260508014126 | 11 | 60 | 0.0 | 0.0 | 0.00 | 0.00 | 0.00 | 64 | 1016.0 |
| 20260508013622 | 11 | 60 | 0.0 | 0.0 | 0.00 | 0.00 | 0.00 | 63 | 1015.9 |
| 20260508013119 | 11 | 60 | 0.0 | 0.0 | 0.00 | 0.00 | 0.00 | 65 | 1016.0 |
| 20260508012617 | 12 | 60 | 0.0 | 0.0 | 0.00 | 0.00 | 0.00 | 63 | 1015.8 |
| 20260508012114 | 12 | 60 | 0.0 | 0.0 | 0.00 | 0.00 | 0.00 | 63 | 1015.6 |
| 20260508011612 | 12 | 60 | 0.0 | 0.0 | 0.00 | 0.00 | 0.00 | 63 | 1015.6 |
| 20260508011109 | 12 | 60 | 0.0 | 0.0 | 0.00 | 0.00 | 0.00 | 63 | 1015.6 |
| 20260508010606 | 12 | 60 | 0.0 | 0.0 | 0.00 | 0.00 | 0.00 | 63 | 1015.7 |
| 20260508010104 | 12 | 60 | 0.0 | 0.0 | 0.00 | 0.00 | 0.00 | 62 | 1015.6 |
| 20260508005600 | 13 | 60 | 0.0 | 0.0 | 0.00 | 0.00 | 0.00 | 62 | 1015.6 |
| 20260508005056 | 13 | 60 | 0.0 | 0.0 | 0.00 | 0.00 | 0.00 | 60 | 1015.6 |
| 20260508004552 | 13 | 60 | 0.0 | 0.0 | 0.00 | 0.00 | 0.00 | 58 | 1015.5 |
| 20260508004049 | 13 | 60 | 0.0 | 0.0 | 0.00 | 0.00 | 0.00 | 54 | 1015.4 |
| 20260508003546 | 14 | 60 | 0.0 | 0.0 | 0.00 | 0.00 | 0.00 | 53 | 1015.5 |
| 20260508003044 | 14 | 60 | 0.0 | 0.0 | 0.00 | 0.00 | 0.00 | 52 | 1015.3 |
| 20260508002540 | 15 | 60 | 0.0 | 0.0 | 0.00 | 0.00 | 0.00 | 52 | 1015.4 |
| 20260508002037 | 15 | 60 | 0.0 | 0.0 | 0.00 | 0.00 | 0.00 | 51 | 1015.4 |
| 20260508001533 | 15 | 60 | 0.0 | 0.0 | 0.00 | 0.00 | 0.00 | 50 | 1015.3 |
| 20260508001029 | 15 | 60 | 0.0 | 0.0 | 0.00 | 0.00 | 0.00 | 48 | 1015.3 |
| 20260508000525 | 16 | 53 | 0.0 | 0.0 | 0.00 | 0.00 | 0.00 | 46 | 1015.4 |
| 20260508000023 | 16 | 53 | 0.0 | 0.0 | 0.00 | 0.00 | 0.00 | 46 | 1015.2 |
| 20260507235519 | 16 | 59 | 0.0 | 0.0 | 0.00 | 0.00 | 0.00 | 45 | 1014.9 |
| 20260507235017 | 16 | 59 | 0.0 | 0.0 | 0.00 | 0.00 | 0.00 | 44 | 1015.1 |
| 20260507234513 | 16 | 55 | 0.0 | 0.0 | 0.00 | 0.00 | 0.00 | 44 | 1015.1 |
| 20260507234009 | 17 | 55 | 0.0 | 0.0 | 0.00 | 0.00 | 0.00 | 44 | 1015.2 |
| 20260507233506 | 17 | 53 | 0.0 | 0.0 | 0.00 | 0.00 | 0.00 | 43 | 1015.0 |
| 20260507233005 | 17 | 63 | 0.0 | 0.0 | 0.00 | 0.00 | 0.00 | 44 | 1015.1 |
| 20260507232500 | 17 | 64 | 0.0 | 0.0 | 0.00 | 0.00 | 0.00 | 42 | 1015.1 |
| 20260507231958 | 17 | 57 | 0.0 | 0.0 | 0.00 | 0.00 | 0.00 | 41 | 1015.1 |
| 20260507231454 | 17 | 51 | 0.0 | 0.0 | 0.00 | 0.00 | 0.00 | 45 | 1015.2 |
| 20260507230951 | 18 | 53 | 0.0 | 0.0 | 0.00 | 0.00 | 0.00 | 43 | 1015.2 |
| 20260507230448 | 18 | 54 | 0.0 | 0.0 | 0.00 | 0.00 | 0.00 | 40 | 1015.1 |
| 20260507225944 | 18 | 39 | 0.0 | 1.6 | 0.00 | 0.00 | 0.00 | 41 | 1015.2 |
| 20260507225440 | 18 | 57 | 1.6 | 3.2 | 0.00 | 0.00 | 0.00 | 40 | 1015.0 |
| 20260507224936 | 18 | 50 | 0.0 | 0.0 | 0.00 | 0.00 | 0.00 | 42 | 1015.4 |
| 20260507224432 | 18 | 304 | 1.6 | 3.2 | 0.00 | 0.00 | 0.00 | 39 | 1015.3 |
| 20260507223929 | 18 | 14 | 3.2 | 4.8 | 0.00 | 0.00 | 0.00 | 37 | 1015.3 |
| 20260507223425 | 18 | 50 | 1.6 | 1.6 | 0.00 | 0.00 | 0.00 | 40 | 1015.4 |
| 20260507222922 | 18 | 50 | 0.0 | 0.0 | 0.00 | 0.00 | 0.00 | 40 | 1015.4 |
| 20260507222419 | 18 | 61 | 0.0 | 0.0 | 0.00 | 0.00 | 0.00 | 39 | 1015.4 |
| 20260507221916 | 19 | 52 | 0.0 | 0.0 | 0.00 | 0.00 | 0.00 | 39 | 1015.2 |
| 20260507221412 | 19 | 47 | 0.0 | 1.6 | 0.00 | 0.00 | 0.00 | 40 | 1015.4 |
| 20260507220908 | 20 | 44 | 0.0 | 1.6 | 0.00 | 0.00 | 0.00 | 39 | 1015.2 |
| 20260507220407 | 20 | 46 | 0.0 | 0.0 | 0.00 | 0.00 | 0.00 | 37 | 1015.5 |
| 20260507215903 | 20 | 39 | 1.6 | 1.6 | 0.00 | 0.00 | 0.00 | 35 | 1015.3 |
| 20260507215359 | 21 | 41 | 0.0 | 0.0 | 0.00 | 0.00 | 0.00 | 39 | 1015.4 |
| 20260507214857 | 20 | 90 | 1.6 | 3.2 | 0.00 | 0.00 | 0.00 | 38 | 1015.2 |
| 20260507214354 | 21 | 28 | 3.2 | 3.2 | 0.00 | 0.00 | 0.00 | 37 | 1015.2 |
| 20260507213850 | 21 | 35 | 0.0 | 0.0 | 0.00 | 0.00 | 0.00 | 37 | 1015.2 |
| 20260507213346 | 20 | 33 | 1.6 | 1.6 | 0.00 | 0.00 | 0.00 | 36 | 1015.2 |
| 20260507212843 | 20 | 35 | 0.0 | 0.0 | 0.00 | 0.00 | 0.00 | 35 | 1015.1 |
| 20260507212339 | 21 | 132 | 3.2 | 4.8 | 0.00 | 0.00 | 0.00 | 39 | 1015.2 |
| 20260507211836 | 21 | 138 | 1.6 | 3.2 | 0.00 | 0.00 | 0.00 | 39 | 1015.1 |
| 20260507211333 | 21 | 283 | 4.8 | 4.8 | 0.00 | 0.00 | 0.00 | 38 | 1015.2 |
| 20260507210829 | 21 | 265 | 1.6 | 4.8 | 0.00 | 0.00 | 0.00 | 37 | 1015.2 |
| 20260507210327 | 21 | 4 | 3.2 | 3.2 | 0.00 | 0.00 | 0.00 | 36 | 1015.2 |
| 20260507205823 | 21 | 118 | 1.6 | 3.2 | 0.00 | 0.00 | 0.00 | 37 | 1015.3 |
| 20260507205320 | 21 | 359 | 4.8 | 4.8 | 0.00 | 0.00 | 0.00 | 34 | 1015.4 |
| 20260507204816 | 21 | 30 | 3.2 | 3.2 | 0.00 | 0.00 | 0.00 | 36 | 1015.3 |
| 20260507204314 | 20 | 34 | 3.2 | 3.2 | 0.00 | 0.00 | 0.00 | 38 | 1015.2 |
| 20260507203812 | 20 | 50 | 3.2 | 3.2 | 0.00 | 0.00 | 0.00 | 36 | 1015.3 |
| 20260507203309 | 20 | 64 | 0.0 | 1.6 | 0.00 | 0.00 | 0.00 | 38 | 1015.6 |
| 20260507202805 | 20 | 54 | 3.2 | 4.8 | 0.00 | 0.00 | 0.00 | 36 | 1015.5 |
| 20260507202301 | 20 | 24 | 3.2 | 3.2 | 0.00 | 0.00 | 0.00 | 39 | 1015.8 |
| 20260507201756 | 20 | 61 | 0.0 | 1.6 | 0.00 | 0.00 | 0.00 | 37 | 1015.5 |
| 20260507201253 | 21 | 32 | 1.6 | 1.6 | 0.00 | 0.00 | 0.00 | 40 | 1015.8 |
| 20260507200749 | 21 | 38 | 0.0 | 1.6 | 0.00 | 0.00 | 0.00 | 38 | 1015.8 |
| 20260507200245 | 20 | 69 | 1.6 | 1.6 | 0.00 | 0.00 | 0.00 | 35 | 1015.8 |
| 20260507195741 | 20 | 324 | 3.2 | 4.8 | 0.00 | 0.00 | 0.00 | 38 | 1015.8 |
| 20260507195239 | 20 | 137 | 3.2 | 3.2 | 0.00 | 0.00 | 0.00 | 35 | 1015.7 |
| 20260507194736 | 20 | 65 | 1.6 | 3.2 | 0.00 | 0.00 | 0.00 | 37 | 1015.7 |
| 20260507194232 | 21 | 47 | 0.0 | 1.6 | 0.00 | 0.00 | 0.00 | 37 | 1015.9 |
| 20260507193729 | 21 | 32 | 1.6 | 1.6 | 0.00 | 0.00 | 0.00 | 41 | 1016.0 |
| 20260507193226 | 21 | 82 | 1.6 | 1.6 | 0.00 | 0.00 | 0.00 | 36 | 1015.8 |
| 20260507192722 | 21 | 41 | 1.6 | 3.2 | 0.00 | 0.00 | 0.00 | 39 | 1015.9 |
| 20260507192219 | 21 | 1 | 1.6 | 3.2 | 0.00 | 0.00 | 0.00 | 36 | 1016.0 |
| 20260507191714 | 21 | 55 | 0.0 | 1.6 | 0.00 | 0.00 | 0.00 | 39 | 1016.4 |
| 20260507191212 | 21 | 41 | 0.0 | 1.6 | 0.00 | 0.00 | 0.00 | 43 | 1016.3 |
| 20260507190708 | 20 | 35 | 1.6 | 1.6 | 0.00 | 0.00 | 0.00 | 42 | 1016.4 |
| 20260507190207 | 20 | 32 | 1.6 | 1.6 | 0.00 | 0.00 | 0.00 | 40 | 1016.3 |
| 20260507185705 | 20 | 41 | 1.6 | 1.6 | 0.00 | 0.00 | 0.00 | 38 | 1016.3 |
| 20260507185202 | 20 | 42 | 1.6 | 1.6 | 0.00 | 0.00 | 0.00 | 41 | 1016.3 |
| 20260507184659 | 20 | 55 | 1.6 | 1.6 | 0.00 | 0.00 | 0.00 | 40 | 1016.5 |
| 20260507184157 | 20 | 10 | 3.2 | 4.8 | 0.00 | 0.00 | 0.00 | 38 | 1016.5 |
| 20260507183653 | 20 | 235 | 4.8 | 4.8 | 0.00 | 0.00 | 0.00 | 37 | 1016.6 |
| 20260507183150 | 20 | 85 | 1.6 | 1.6 | 0.00 | 0.00 | 0.00 | 40 | 1016.4 |
| 20260507182648 | 20 | 53 | 0.0 | 1.6 | 0.00 | 0.00 | 0.00 | 44 | 1016.3 |
| 20260507182143 | 20 | 45 | 1.6 | 1.6 | 0.00 | 0.00 | 0.00 | 46 | 1016.5 |
| 20260507181640 | 20 | 317 | 3.2 | 3.2 | 0.00 | 0.00 | 0.00 | 41 | 1016.7 |
| 20260507181136 | 20 | 33 | 1.6 | 1.6 | 0.00 | 0.00 | 0.00 | 37 | 1016.9 |
| 20260507180632 | 19 | 41 | 3.2 | 3.2 | 0.00 | 0.00 | 0.00 | 41 | 1016.8 |
| 20260507180130 | 20 | 38 | 3.2 | 3.2 | 0.00 | 0.00 | 0.00 | 42 | 1016.7 |
| 20260507175625 | 19 | 33 | 1.6 | 1.6 | 0.00 | 0.00 | 0.00 | 42 | 1016.8 |
| 20260507175123 | 19 | 29 | 0.0 | 1.6 | 0.00 | 0.00 | 0.00 | 37 | 1016.9 |
| 20260507174620 | 19 | 62 | 1.6 | 3.2 | 0.00 | 0.00 | 0.00 | 37 | 1017.0 |
| 20260507174118 | 19 | 243 | 3.2 | 3.2 | 0.00 | 0.00 | 0.00 | 41 | 1016.9 |
| 20260507173615 | 19 | 52 | 0.0 | 0.0 | 0.00 | 0.00 | 0.00 | 42 | 1016.9 |
| 20260507173112 | 20 | 57 | 0.0 | 1.6 | 0.00 | 0.00 | 0.00 | 40 | 1017.0 |
| 20260507172607 | 20 | 77 | 1.6 | 1.6 | 0.00 | 0.00 | 0.00 | 38 | 1017.2 |
| 20260507172106 | 19 | 45 | 1.6 | 1.6 | 0.00 | 0.00 | 0.00 | 45 | 1017.1 |
| 20260507171600 | 20 | 63 | 0.0 | 1.6 | 0.00 | 0.00 | 0.00 | 38 | 1017.2 |
| 20260507171057 | 19 | 27 | 0.0 | 1.6 | 0.00 | 0.00 | 0.00 | 42 | 1017.2 |
| 20260507170554 | 18 | 17 | 1.6 | 1.6 | 0.00 | 0.00 | 0.00 | 40 | 1017.4 |
| 20260507170051 | 18 | 353 | 3.2 | 4.8 | 0.00 | 0.00 | 0.00 | 43 | 1017.5 |
| 20260507165547 | 19 | 22 | 4.8 | 6.4 | 0.00 | 0.00 | 0.00 | 43 | 1017.5 |
| 20260507165044 | 19 | 31 | 3.2 | 3.2 | 0.00 | 0.00 | 0.00 | 44 | 1017.5 |
| 20260507164540 | 19 | 54 | 0.0 | 0.0 | 0.00 | 0.00 | 0.00 | 39 | 1017.5 |